Time,TemperatureF,DewpointF,PressureIn,WindDirection,WindDirectionDegrees,WindSpeedMPH,WindSpeedGustMPH,Humidity,HourlyPrecipIn,Conditions,Clouds,dailyrainin,SoftwareType,DateUTC
2013-09-05 00:02:00,59.0,58.4,30.16,NNW,338,0.0,0.0,98,0.00,,---,0.00,VWS V14.00,2013-09-05 05:02:00,
2013-09-05 00:07:00,58.0,57.2,30.16,NNW,338,0.0,0.0,97,0.00,,---,0.00,VWS V14.00,2013-09-05 05:07:00,
2013-09-05 00:12:00,58.0,57.4,30.15,NNW,338,0.0,0.0,98,0.00,,---,0.00,VWS V14.00,2013-09-05 05:12:00,
2013-09-05 00:17:00,58.0,57.4,30.15,NNW,338,0.0,0.0,98,0.00,,---,0.00,VWS V14.00,2013-09-05 05:17:00,
2013-09-05 00:22:00,58.0,57.7,30.16,NNW,338,0.0,0.0,99,0.00,,---,0.00,VWS V14.00,2013-09-05 05:22:00,
2013-09-05 00:27:00,58.0,57.7,30.15,NNW,338,0.0,0.0,99,0.00,,---,0.00,VWS V14.00,2013-09-05 05:27:00,
2013-09-05 00:32:00,57.0,56.7,30.16,NNW,338,1.0,2.0,99,0.00,,---,0.00,VWS V14.00,2013-09-05 05:32:00,
2013-09-05 00:37:00,57.0,56.7,30.16,NNW,338,3.0,3.0,99,0.00,,---,0.00,VWS V14.00,2013-09-05 05:37:00,
2013-09-05 00:42:00,57.0,57.0,30.16,NNW,338,3.0,3.0,100,0.00,,---,0.00,VWS V14.00,2013-09-05 05:42:00,
2013-09-05 00:47:00,57.0,57.0,30.16,NNW,338,4.0,4.0,100,0.00,,---,0.00,VWS V14.00,2013-09-05 05:47:00,
2013-09-05 00:52:00,57.0,57.0,30.16,North,0,2.0,4.0,100,0.00,,---,0.00,VWS V14.00,2013-09-05 05:52:00,
2013-09-05 00:57:00,57.0,57.0,30.16,ESE,112,0.0,0.0,100,0.00,,---,0.00,VWS V14.00,2013-09-05 05:57:00,
2013-09-05 01:02:00,57.0,57.0,30.16,NE,45,0.0,0.0,100,0.00,,---,0.00,VWS V14.00,2013-09-05 06:02:00,
2013-09-05 01:07:00,56.0,56.0,30.16,NE,45,0.0,0.0,100,0.00,,---,0.00,VWS V14.00,2013-09-05 06:07:00,
2013-09-05 01:12:00,56.0,56.0,30.16,NE,45,0.0,0.0,100,0.00,,---,0.00,VWS V14.00,2013-09-05 06:12:00,
2013-09-05 01:17:00,56.0,56.0,30.16,NE,45,0.0,0.0,100,0.00,,---,0.00,VWS V14.00,2013-09-05 06:17:00,
2013-09-05 01:21:00,56.0,56.0,30.16,NNE,22,0.0,0.0,100,0.00,,---,0.00,VWS V14.00,2013-09-05 06:21:00,
2013-09-05 01:26:00,56.0,56.0,30.16,NNE,22,0.0,0.0,100,0.00,,---,0.00,VWS V14.00,2013-09-05 06:26:00,
2013-09-05 01:31:00,56.0,56.0,30.16,NNE,22,0.0,0.0,100,0.00,,---,0.00,VWS V14.00,2013-09-05 06:31:00,
2013-09-05 01:36:00,56.0,56.0,30.16,NNE,22,0.0,0.0,100,0.00,,---,0.00,VWS V14.00,2013-09-05 06:36:00,
2013-09-05 01:41:00,56.0,56.0,30.15,NNE,22,0.0,0.0,100,0.00,,---,0.00,VWS V14.00,2013-09-05 06:41:00,
2013-09-05 01:46:00,56.0,56.0,30.15,NNE,22,0.0,0.0,100,0.00,,---,0.00,VWS V14.00,2013-09-05 06:46:00,
2013-09-05 01:51:00,55.0,55.0,30.15,ENE,68,0.0,0.0,100,0.00,,---,0.00,VWS V14.00,2013-09-05 06:51:00,
2013-09-05 01:56:00,56.0,56.0,30.15,ENE,68,0.0,0.0,100,0.00,,---,0.00,VWS V14.00,2013-09-05 06:56:00,
2013-09-05 02:01:00,56.0,56.0,30.15,ENE,68,0.0,0.0,100,0.00,,---,0.00,VWS V14.00,2013-09-05 07:01:00,
2013-09-05 02:06:00,55.0,55.0,30.16,ENE,68,0.0,0.0,100,0.00,,---,0.00,VWS V14.00,2013-09-05 07:06:00,
2013-09-05 02:11:00,55.0,55.0,30.16,ENE,68,0.0,0.0,100,0.00,,---,0.00,VWS V14.00,2013-09-05 07:11:00,
2013-09-05 02:16:00,54.0,54.0,30.16,North,0,0.0,0.0,100,0.00,,---,0.00,VWS V14.00,2013-09-05 07:16:00,
2013-09-05 02:21:00,54.0,54.0,30.16,North,0,0.0,0.0,100,0.00,,---,0.00,VWS V14.00,2013-09-05 07:21:00,
2013-09-05 02:26:00,54.0,54.0,30.16,NNW,338,1.0,1.0,100,0.00,,---,0.00,VWS V14.00,2013-09-05 07:26:00,
2013-09-05 02:31:00,54.0,54.0,30.16,North,0,0.0,1.0,100,0.00,,---,0.00,VWS V14.00,2013-09-05 07:31:00,
2013-09-05 02:36:00,55.0,55.0,30.16,WNW,292,2.0,2.0,100,0.00,,---,0.00,VWS V14.00,2013-09-05 07:36:00,
2013-09-05 02:41:00,55.0,55.0,30.16,North,0,0.0,0.0,100,0.00,,---,0.00,VWS V14.00,2013-09-05 07:41:00,
2013-09-05 02:46:00,54.0,54.0,30.16,NNE,22,0.0,0.0,100,0.00,,---,0.00,VWS V14.00,2013-09-05 07:46:00,
2013-09-05 02:51:00,54.0,54.0,30.16,NNE,22,0.0,0.0,100,0.00,,---,0.00,VWS V14.00,2013-09-05 07:51:00,
2013-09-05 02:56:00,54.0,54.0,30.16,NNE,22,0.0,0.0,100,0.00,,---,0.00,VWS V14.00,2013-09-05 07:56:00,
2013-09-05 03:01:00,54.0,54.0,30.16,SSE,158,0.0,0.0,100,0.00,,---,0.00,VWS V14.00,2013-09-05 08:01:00,
2013-09-05 03:06:00,54.0,54.0,30.16,East,90,0.0,2.0,100,0.00,,---,0.00,VWS V14.00,2013-09-05 08:06:00,
2013-09-05 03:25:00,53.0,53.0,30.16,East,90,0.0,0.0,100,0.00,,---,0.00,VWS V14.00,2013-09-05 08:25:00,
2013-09-05 03:30:00,53.0,53.0,30.15,East,90,0.0,0.0,100,0.00,,---,0.00,VWS V14.00,2013-09-05 08:30:00,
2013-09-05 03:35:00,52.0,52.0,30.16,East,90,0.0,0.0,100,0.00,,---,0.00,VWS V14.00,2013-09-05 08:35:00,
2013-09-05 03:40:00,52.0,52.0,30.16,East,90,0.0,0.0,100,0.00,,---,0.00,VWS V14.00,2013-09-05 08:40:00,
2013-09-05 03:45:00,52.0,52.0,30.16,East,90,0.0,0.0,100,0.00,,---,0.00,VWS V14.00,2013-09-05 08:45:00,
2013-09-05 03:50:00,52.0,52.0,30.16,East,90,0.0,0.0,100,0.00,,---,0.00,VWS V14.00,2013-09-05 08:50:00,
2013-09-05 03:55:00,53.0,53.0,30.16,East,90,0.0,1.0,100,0.00,,---,0.00,VWS V14.00,2013-09-05 08:55:00,
2013-09-05 04:00:00,53.0,53.0,30.16,SSW,202,0.0,1.0,100,0.00,,---,0.00,VWS V14.00,2013-09-05 09:00:00,
2013-09-05 04:05:00,53.0,53.0,30.16,North,0,1.0,2.0,100,0.00,,---,0.00,VWS V14.00,2013-09-05 09:05:00,
2013-09-05 04:10:00,53.0,53.0,30.15,NNE,22,0.0,1.0,100,0.00,,---,0.00,VWS V14.00,2013-09-05 09:10:00,
2013-09-05 04:15:00,53.0,53.0,30.15,North,0,1.0,1.0,100,0.00,,---,0.00,VWS V14.00,2013-09-05 09:15:00,
2013-09-05 04:20:00,53.0,53.0,30.15,North,0,0.0,0.0,100,0.00,,---,0.00,VWS V14.00,2013-09-05 09:20:00,
2013-09-05 04:25:00,53.0,53.0,30.15,North,0,0.0,0.0,100,0.00,,---,0.00,VWS V14.00,2013-09-05 09:25:00,
2013-09-05 04:30:00,52.0,52.0,30.16,North,0,2.0,3.0,100,0.00,,---,0.00,VWS V14.00,2013-09-05 09:30:00,
2013-09-05 04:35:00,52.0,52.0,30.16,North,0,2.0,3.0,100,0.00,,---,0.00,VWS V14.00,2013-09-05 09:35:00,
2013-09-05 04:40:00,52.0,52.0,30.16,North,0,2.0,3.0,100,0.00,,---,0.00,VWS V14.00,2013-09-05 09:40:00,
2013-09-05 04:45:00,52.0,52.0,30.16,NNW,338,2.0,3.0,100,0.00,,---,0.00,VWS V14.00,2013-09-05 09:45:00,
2013-09-05 04:50:00,52.0,52.0,30.16,North,0,3.0,3.0,100,0.00,,---,0.00,VWS V14.00,2013-09-05 09:50:00,
2013-09-05 04:55:00,52.0,52.0,30.16,North,0,1.0,2.0,100,0.00,,---,0.00,VWS V14.00,2013-09-05 09:55:00,
2013-09-05 05:00:00,52.0,52.0,30.16,NW,315,0.0,0.0,100,0.00,,---,0.00,VWS V14.00,2013-09-05 10:00:00,
2013-09-05 05:05:00,52.0,52.0,30.16,WNW,292,0.0,0.0,100,0.00,,---,0.00,VWS V14.00,2013-09-05 10:05:00,
2013-09-05 05:10:00,52.0,52.0,30.16,NW,315,1.0,2.0,100,0.00,,---,0.00,VWS V14.00,2013-09-05 10:10:00,
2013-09-05 05:15:00,52.0,52.0,30.16,NNW,338,0.0,1.0,100,0.00,,---,0.00,VWS V14.00,2013-09-05 10:15:00,
2013-09-05 05:20:00,52.0,52.0,30.16,West,270,1.0,1.0,100,0.00,,---,0.00,VWS V14.00,2013-09-05 10:20:00,
2013-09-05 05:25:00,52.0,52.0,30.16,North,0,0.0,0.0,100,0.00,,---,0.00,VWS V14.00,2013-09-05 10:25:00,
2013-09-05 05:30:00,52.0,52.0,30.16,North,0,0.0,0.0,100,0.00,,---,0.00,VWS V14.00,2013-09-05 10:30:00,
2013-09-05 05:35:00,52.0,52.0,30.17,North,0,0.0,1.0,100,0.00,,---,0.00,VWS V14.00,2013-09-05 10:35:00,
2013-09-05 05:40:00,52.0,52.0,30.17,South,180,0.0,0.0,100,0.00,,---,0.00,VWS V14.00,2013-09-05 10:40:00,
2013-09-05 05:45:00,52.0,52.0,30.17,NNE,22,0.0,0.0,100,0.00,,---,0.00,VWS V14.00,2013-09-05 10:45:00,
2013-09-05 05:50:00,52.0,52.0,30.18,SSW,202,0.0,0.0,100,0.00,,---,0.00,VWS V14.00,2013-09-05 10:50:00,
2013-09-05 05:55:00,52.0,52.0,30.17,East,90,0.0,0.0,100,0.00,,---,0.00,VWS V14.00,2013-09-05 10:55:00,
2013-09-05 06:00:00,52.0,52.0,30.18,NW,315,0.0,0.0,100,0.00,,---,0.00,VWS V14.00,2013-09-05 11:00:00,
2013-09-05 06:05:00,52.0,52.0,30.18,NNE,22,0.0,0.0,100,0.00,,---,0.00,VWS V14.00,2013-09-05 11:05:00,
2013-09-05 06:10:00,52.0,52.0,30.18,ENE,68,0.0,0.0,100,0.00,,---,0.00,VWS V14.00,2013-09-05 11:10:00,
2013-09-05 06:15:00,52.0,52.0,30.19,North,0,0.0,0.0,100,0.00,,---,0.00,VWS V14.00,2013-09-05 11:15:00,
2013-09-05 06:20:00,52.0,52.0,30.19,North,0,0.0,0.0,100,0.00,,---,0.00,VWS V14.00,2013-09-05 11:20:00,
2013-09-05 06:25:00,52.0,52.0,30.19,NNE,22,0.0,0.0,100,0.00,,---,0.00,VWS V14.00,2013-09-05 11:25:00,
2013-09-05 06:30:00,52.0,52.0,30.19,ENE,68,0.0,0.0,100,0.00,,---,0.00,VWS V14.00,2013-09-05 11:30:00,
2013-09-05 06:35:00,51.0,51.0,30.20,East,90,0.0,0.0,100,0.00,,---,0.00,VWS V14.00,2013-09-05 11:35:00,
2013-09-05 06:40:00,52.0,52.0,30.20,East,90,0.0,0.0,100,0.00,,---,0.00,VWS V14.00,2013-09-05 11:40:00,
2013-09-05 06:45:00,52.0,52.0,30.20,ENE,68,0.0,0.0,100,0.00,,---,0.00,VWS V14.00,2013-09-05 11:45:00,
2013-09-05 06:50:00,52.0,52.0,30.20,NNE,22,2.0,3.0,100,0.00,,---,0.00,VWS V14.00,2013-09-05 11:50:00,
2013-09-05 06:55:00,52.0,52.0,30.20,ESE,112,0.0,0.0,100,0.00,,---,0.00,VWS V14.00,2013-09-05 11:55:00,
2013-09-05 07:00:00,53.0,53.0,30.20,ESE,112,0.0,1.0,100,0.00,,---,0.00,VWS V14.00,2013-09-05 12:00:00,
2013-09-05 07:05:00,53.0,53.0,30.21,SE,135,0.0,1.0,100,0.00,,---,0.00,VWS V14.00,2013-09-05 12:05:00,
2013-09-05 07:10:00,53.0,53.0,30.21,ENE,68,1.0,3.0,100,0.00,,---,0.00,VWS V14.00,2013-09-05 12:10:00,
2013-09-05 07:15:00,54.0,54.0,30.21,NE,45,3.0,4.0,100,0.00,,---,0.00,VWS V14.00,2013-09-05 12:15:00,
2013-09-05 07:20:00,54.0,54.0,30.21,NE,45,1.0,3.0,100,0.00,,---,0.00,VWS V14.00,2013-09-05 12:20:00,
2013-09-05 07:25:00,54.0,54.0,30.21,ENE,68,0.0,0.0,100,0.00,,---,0.00,VWS V14.00,2013-09-05 12:25:00,
2013-09-05 07:30:00,55.0,55.0,30.21,ENE,68,0.0,0.0,100,0.00,,---,0.00,VWS V14.00,2013-09-05 12:30:00,
2013-09-05 07:35:00,55.0,55.0,30.21,East,90,0.0,0.0,100,0.00,,---,0.00,VWS V14.00,2013-09-05 12:35:00,
2013-09-05 07:40:00,55.0,55.0,30.21,East,90,1.0,2.0,100,0.00,,---,0.00,VWS V14.00,2013-09-05 12:40:00,
2013-09-05 07:45:00,55.0,55.0,30.21,NE,45,0.0,1.0,100,0.00,,---,0.00,VWS V14.00,2013-09-05 12:45:00,
2013-09-05 07:50:00,55.0,55.0,30.22,NNE,22,0.0,0.0,100,0.00,,---,0.00,VWS V14.00,2013-09-05 12:50:00,
2013-09-05 07:55:00,55.0,55.0,30.22,SSW,202,0.0,0.0,100,0.00,,---,0.00,VWS V14.00,2013-09-05 12:55:00,
2013-09-05 08:00:00,56.0,56.0,30.22,SW,225,0.0,0.0,100,0.00,,---,0.00,VWS V14.00,2013-09-05 13:00:00,
2013-09-05 08:05:00,56.0,56.0,30.22,WSW,248,0.0,0.0,100,0.00,,---,0.00,VWS V14.00,2013-09-05 13:05:00,
2013-09-05 08:10:00,57.0,57.0,30.22,WSW,248,0.0,0.0,100,0.00,,---,0.00,VWS V14.00,2013-09-05 13:10:00,
2013-09-05 08:15:00,58.0,58.0,30.22,NE,45,0.0,0.0,100,0.00,,---,0.00,VWS V14.00,2013-09-05 13:15:00,
2013-09-05 08:20:00,59.0,59.0,30.22,South,180,0.0,0.0,100,0.00,,---,0.00,VWS V14.00,2013-09-05 13:20:00,
2013-09-05 08:25:00,59.0,59.0,30.22,West,270,0.0,0.0,100,0.00,,---,0.00,VWS V14.00,2013-09-05 13:25:00,
2013-09-05 08:30:00,60.0,60.0,30.22,NNE,22,0.0,0.0,100,0.00,,---,0.00,VWS V14.00,2013-09-05 13:30:00,
2013-09-05 08:35:00,60.0,60.0,30.22,SSW,202,0.0,0.0,100,0.00,,---,0.00,VWS V14.00,2013-09-05 13:35:00,
2013-09-05 08:40:00,61.0,61.0,30.22,WSW,248,0.0,0.0,100,0.00,,---,0.00,VWS V14.00,2013-09-05 13:40:00,
2013-09-05 08:45:00,61.0,61.0,30.22,NNW,338,0.0,0.0,100,0.00,,---,0.00,VWS V14.00,2013-09-05 13:45:00,
2013-09-05 08:50:00,62.0,62.0,30.22,NNW,338,0.0,0.0,100,0.00,,---,0.00,VWS V14.00,2013-09-05 13:50:00,
2013-09-05 08:55:00,63.0,63.0,30.22,North,0,0.0,0.0,100,0.00,,---,0.00,VWS V14.00,2013-09-05 13:55:00,
2013-09-05 09:00:00,64.0,64.0,30.22,NNW,338,0.0,0.0,100,0.00,,---,0.00,VWS V14.00,2013-09-05 14:00:00,
2013-09-05 09:05:00,65.0,65.0,30.22,SSW,202,0.0,0.0,100,0.00,,---,0.00,VWS V14.00,2013-09-05 14:05:00,
2013-09-05 09:10:00,65.0,64.7,30.22,WNW,292,0.0,0.0,99,0.00,,---,0.00,VWS V14.00,2013-09-05 14:10:00,
2013-09-05 09:15:00,66.0,65.4,30.21,WNW,292,0.0,1.0,98,0.00,,---,0.00,VWS V14.00,2013-09-05 14:15:00,
2013-09-05 09:20:00,68.0,66.8,30.21,WNW,292,0.0,0.0,96,0.00,,---,0.00,VWS V14.00,2013-09-05 14:20:00,
2013-09-05 09:25:00,68.0,65.9,30.21,WNW,292,0.0,0.0,93,0.00,,---,0.00,VWS V14.00,2013-09-05 14:25:00,
2013-09-05 09:30:00,69.0,65.9,30.21,SSW,202,0.0,0.0,90,0.00,,---,0.00,VWS V14.00,2013-09-05 14:30:00,
2013-09-05 09:35:00,69.0,65.3,30.21,NE,45,0.0,0.0,88,0.00,,---,0.00,VWS V14.00,2013-09-05 14:35:00,
2013-09-05 09:40:00,70.0,66.0,30.22,ENE,68,0.0,0.0,87,0.00,,---,0.00,VWS V14.00,2013-09-05 14:40:00,
2013-09-05 09:45:00,71.0,65.9,30.22,ENE,68,2.0,2.0,84,0.00,,---,0.00,VWS V14.00,2013-09-05 14:45:00,
2013-09-05 09:50:00,71.0,64.9,30.22,SW,225,0.0,1.0,81,0.00,,---,0.00,VWS V14.00,2013-09-05 14:50:00,
2013-09-05 09:55:00,70.0,63.2,30.22,East,90,3.0,3.0,79,0.00,,---,0.00,VWS V14.00,2013-09-05 14:55:00,
2013-09-05 10:00:00,70.0,62.8,30.22,NE,45,2.0,2.0,78,0.00,,---,0.00,VWS V14.00,2013-09-05 15:00:00,
2013-09-05 10:05:00,71.0,63.4,30.22,ESE,112,1.0,1.0,77,0.00,,---,0.00,VWS V14.00,2013-09-05 15:05:00,
2013-09-05 10:10:00,72.0,64.0,30.22,NE,45,2.0,2.0,76,0.00,,---,0.00,VWS V14.00,2013-09-05 15:10:00,
2013-09-05 10:15:00,72.0,62.1,30.22,NW,315,0.0,0.0,71,0.00,,---,0.00,VWS V14.00,2013-09-05 15:15:00,
2013-09-05 10:20:00,72.0,62.5,30.22,ESE,112,2.0,3.0,72,0.00,,---,0.00,VWS V14.00,2013-09-05 15:20:00,
2013-09-05 10:25:00,72.0,62.9,30.22,NNE,22,0.0,0.0,73,0.00,,---,0.00,VWS V14.00,2013-09-05 15:25:00,
2013-09-05 10:30:00,72.0,62.9,30.22,NW,315,0.0,0.0,73,0.00,,---,0.00,VWS V14.00,2013-09-05 15:30:00,
2013-09-05 10:35:00,72.0,62.5,30.23,ESE,112,1.0,5.0,72,0.00,,---,0.00,VWS V14.00,2013-09-05 15:35:00,
2013-09-05 10:40:00,73.0,63.0,30.22,ESE,112,1.0,3.0,71,0.00,,---,0.00,VWS V14.00,2013-09-05 15:40:00,
2013-09-05 10:45:00,73.0,62.7,30.23,East,90,2.0,2.0,70,0.00,,---,0.00,VWS V14.00,2013-09-05 15:45:00,
2013-09-05 10:50:00,73.0,62.2,30.23,North,0,0.0,2.0,69,0.00,,---,0.00,VWS V14.00,2013-09-05 15:50:00,
2013-09-05 10:55:00,73.0,62.2,30.23,North,0,0.0,3.0,69,0.00,,---,0.00,VWS V14.00,2013-09-05 15:55:00,
2013-09-05 10:59:00,74.0,61.9,30.23,East,90,3.0,3.0,66,0.00,,---,0.00,VWS V14.00,2013-09-05 15:59:00,
2013-09-05 11:04:00,74.0,62.4,30.22,SSE,158,3.0,5.0,67,0.00,,---,0.00,VWS V14.00,2013-09-05 16:04:00,
2013-09-05 11:09:00,73.0,60.5,30.22,East,90,5.0,8.0,65,0.00,,---,0.00,VWS V14.00,2013-09-05 16:09:00,
2013-09-05 11:14:00,73.0,60.5,30.23,ESE,112,2.0,3.0,65,0.00,,---,0.00,VWS V14.00,2013-09-05 16:14:00,
2013-09-05 11:19:00,74.0,62.8,30.23,ESE,112,4.0,4.0,68,0.00,,---,0.00,VWS V14.00,2013-09-05 16:19:00,
2013-09-05 11:24:00,73.0,61.4,30.22,North,0,1.0,5.0,67,0.00,,---,0.00,VWS V14.00,2013-09-05 16:24:00,
2013-09-05 11:29:00,73.0,61.8,30.22,East,90,3.0,4.0,68,0.00,,---,0.00,VWS V14.00,2013-09-05 16:29:00,
2013-09-05 11:34:00,74.0,62.8,30.22,West,270,3.0,3.0,68,0.00,,---,0.00,VWS V14.00,2013-09-05 16:34:00,
2013-09-05 11:39:00,74.0,63.6,30.22,WNW,292,4.0,4.0,70,0.00,,---,0.00,VWS V14.00,2013-09-05 16:39:00,
2013-09-05 11:44:00,74.0,62.8,30.22,NE,45,3.0,4.0,68,0.00,,---,0.00,VWS V14.00,2013-09-05 16:44:00,
2013-09-05 11:49:00,75.0,63.3,30.22,South,180,1.0,4.0,67,0.00,,---,0.00,VWS V14.00,2013-09-05 16:49:00,
2013-09-05 11:54:00,75.0,63.3,30.22,WNW,292,1.0,5.0,67,0.00,,---,0.00,VWS V14.00,2013-09-05 16:54:00,
2013-09-05 11:59:00,75.0,62.9,30.22,SSW,202,3.0,6.0,66,0.00,,---,0.00,VWS V14.00,2013-09-05 16:59:00,
2013-09-05 12:04:00,74.0,61.9,30.22,East,90,8.0,9.0,66,0.00,,---,0.00,VWS V14.00,2013-09-05 17:04:00,
2013-09-05 12:09:00,74.0,61.9,30.22,NNE,22,4.0,10.0,66,0.00,,---,0.00,VWS V14.00,2013-09-05 17:09:00,
2013-09-05 12:14:00,74.0,61.1,30.22,WNW,292,3.0,4.0,64,0.00,,---,0.00,VWS V14.00,2013-09-05 17:14:00,
2013-09-05 12:19:00,75.0,63.3,30.22,NNW,338,5.0,5.0,67,0.00,,---,0.00,VWS V14.00,2013-09-05 17:19:00,
2013-09-05 12:24:00,75.0,62.9,30.22,NW,315,2.0,3.0,66,0.00,,---,0.00,VWS V14.00,2013-09-05 17:24:00,
2013-09-05 12:29:00,75.0,62.5,30.22,NNE,22,3.0,6.0,65,0.00,,---,0.00,VWS V14.00,2013-09-05 17:29:00,
2013-09-05 12:34:00,75.0,62.0,30.22,East,90,2.0,4.0,64,0.00,,---,0.00,VWS V14.00,2013-09-05 17:34:00,
2013-09-05 12:39:00,76.0,63.4,30.22,North,0,3.0,4.0,65,0.00,,---,0.00,VWS V14.00,2013-09-05 17:39:00,
2013-09-05 12:44:00,76.0,63.0,30.22,WNW,292,2.0,6.0,64,0.00,,---,0.00,VWS V14.00,2013-09-05 17:44:00,
2013-09-05 12:49:00,76.0,61.6,30.22,WSW,248,2.0,6.0,61,0.00,,---,0.00,VWS V14.00,2013-09-05 17:49:00,
2013-09-05 12:54:00,76.0,61.1,30.22,ENE,68,3.0,6.0,60,0.00,,---,0.00,VWS V14.00,2013-09-05 17:54:00,
2013-09-05 12:59:00,76.0,60.7,30.21,NE,45,6.0,6.0,59,0.00,,---,0.00,VWS V14.00,2013-09-05 17:59:00,
2013-09-05 13:04:00,75.0,59.7,30.21,ESE,112,1.0,5.0,59,0.00,,---,0.00,VWS V14.00,2013-09-05 18:04:00,
2013-09-05 13:09:00,76.0,62.0,30.21,NE,45,8.0,8.0,62,0.00,,---,0.00,VWS V14.00,2013-09-05 18:09:00,
2013-09-05 13:14:00,75.0,58.8,30.21,NE,45,8.0,8.0,57,0.00,,---,0.00,VWS V14.00,2013-09-05 18:14:00,
2013-09-05 13:19:00,75.0,59.7,30.21,East,90,3.0,6.0,59,0.00,,---,0.00,VWS V14.00,2013-09-05 18:19:00,
2013-09-05 13:24:00,76.0,61.6,30.21,ENE,68,1.0,6.0,61,0.00,,---,0.00,VWS V14.00,2013-09-05 18:24:00,
2013-09-05 13:29:00,76.0,61.1,30.20,NNE,22,4.0,5.0,60,0.00,,---,0.00,VWS V14.00,2013-09-05 18:29:00,
2013-09-05 13:34:00,76.0,60.7,30.20,NNE,22,3.0,8.0,59,0.00,,---,0.00,VWS V14.00,2013-09-05 18:34:00,
2013-09-05 13:39:00,76.0,61.6,30.20,ENE,68,3.0,6.0,61,0.00,,---,0.00,VWS V14.00,2013-09-05 18:39:00,
2013-09-05 13:44:00,76.0,62.5,30.20,ESE,112,4.0,5.0,63,0.00,,---,0.00,VWS V14.00,2013-09-05 18:44:00,
2013-09-05 13:49:00,76.0,62.0,30.20,SSE,158,3.0,4.0,62,0.00,,---,0.00,VWS V14.00,2013-09-05 18:49:00,
2013-09-05 13:54:00,76.0,61.6,30.19,East,90,5.0,8.0,61,0.00,,---,0.00,VWS V14.00,2013-09-05 18:54:00,
2013-09-05 13:59:00,76.0,60.2,30.20,ESE,112,4.0,5.0,58,0.00,,---,0.00,VWS V14.00,2013-09-05 18:59:00,
2013-09-05 14:04:00,76.0,59.7,30.19,East,90,5.0,8.0,57,0.00,,---,0.00,VWS V14.00,2013-09-05 19:04:00,
2013-09-05 14:09:00,76.0,59.2,30.19,ESE,112,2.0,6.0,56,0.00,,---,0.00,VWS V14.00,2013-09-05 19:09:00,
2013-09-05 14:14:00,77.0,61.1,30.19,East,90,5.0,7.0,58,0.00,,---,0.00,VWS V14.00,2013-09-05 19:14:00,
2013-09-05 14:19:00,77.0,61.6,30.18,SE,135,3.0,5.0,59,0.00,,---,0.00,VWS V14.00,2013-09-05 19:19:00,
2013-09-05 14:24:00,77.0,62.1,30.18,SSE,158,4.0,5.0,60,0.00,,---,0.00,VWS V14.00,2013-09-05 19:24:00,
2013-09-05 14:29:00,78.0,62.5,30.18,NW,315,1.0,3.0,59,0.00,,---,0.00,VWS V14.00,2013-09-05 19:29:00,
2013-09-05 14:34:00,77.0,61.6,30.18,East,90,3.0,3.0,59,0.00,,---,0.00,VWS V14.00,2013-09-05 19:34:00,
2013-09-05 14:39:00,77.0,61.1,30.18,SSE,158,3.0,5.0,58,0.00,,---,0.00,VWS V14.00,2013-09-05 19:39:00,
2013-09-05 14:44:00,77.0,61.6,30.18,SE,135,5.0,5.0,59,0.00,,---,0.00,VWS V14.00,2013-09-05 19:44:00,
2013-09-05 14:49:00,77.0,62.1,30.17,SE,135,4.0,4.0,60,0.00,,---,0.00,VWS V14.00,2013-09-05 19:49:00,
2013-09-05 14:54:00,77.0,61.6,30.17,SSE,158,4.0,6.0,59,0.00,,---,0.00,VWS V14.00,2013-09-05 19:54:00,
2013-09-05 14:59:00,77.0,62.5,30.17,South,180,5.0,5.0,61,0.00,,---,0.00,VWS V14.00,2013-09-05 19:59:00,
2013-09-05 15:04:00,77.0,62.5,30.17,ESE,112,5.0,5.0,61,0.00,,---,0.00,VWS V14.00,2013-09-05 20:04:00,
2013-09-05 15:09:00,77.0,61.6,30.17,SSE,158,2.0,3.0,59,0.00,,---,0.00,VWS V14.00,2013-09-05 20:09:00,
2013-09-05 15:14:00,77.0,60.6,30.17,NNE,22,1.0,3.0,57,0.00,,---,0.00,VWS V14.00,2013-09-05 20:14:00,
2013-09-05 15:19:00,77.0,61.1,30.17,NNE,22,2.0,4.0,58,0.00,,---,0.00,VWS V14.00,2013-09-05 20:19:00,
2013-09-05 15:24:00,78.0,63.0,30.17,East,90,1.0,2.0,60,0.00,,---,0.00,VWS V14.00,2013-09-05 20:24:00,
2013-09-05 15:29:00,77.0,60.6,30.17,NE,45,6.0,8.0,57,0.00,,---,0.00,VWS V14.00,2013-09-05 20:29:00,
2013-09-05 15:34:00,78.0,62.0,30.16,NE,45,4.0,5.0,58,0.00,,---,0.00,VWS V14.00,2013-09-05 20:34:00,
2013-09-05 15:39:00,77.0,59.6,30.16,East,90,5.0,6.0,55,0.00,,---,0.00,VWS V14.00,2013-09-05 20:39:00,
2013-09-05 15:44:00,77.0,60.1,30.17,NNE,22,5.0,5.0,56,0.00,,---,0.00,VWS V14.00,2013-09-05 20:44:00,
2013-09-05 15:49:00,77.0,59.6,30.17,ENE,68,6.0,6.0,55,0.00,,---,0.00,VWS V14.00,2013-09-05 20:49:00,
2013-09-05 15:54:00,77.0,59.1,30.17,ENE,68,5.0,6.0,54,0.00,,---,0.00,VWS V14.00,2013-09-05 20:54:00,
2013-09-05 15:59:00,77.0,59.6,30.17,ENE,68,5.0,5.0,55,0.00,,---,0.00,VWS V14.00,2013-09-05 20:59:00,
2013-09-05 16:04:00,77.0,60.1,30.17,NE,45,4.0,6.0,56,0.00,,---,0.00,VWS V14.00,2013-09-05 21:04:00,
2013-09-05 16:09:00,77.0,59.6,30.17,NNE,22,3.0,3.0,55,0.00,,---,0.00,VWS V14.00,2013-09-05 21:09:00,
2013-09-05 16:14:00,77.0,60.1,30.17,East,90,4.0,6.0,56,0.00,,---,0.00,VWS V14.00,2013-09-05 21:14:00,
2013-09-05 16:19:00,77.0,59.6,30.17,NE,45,3.0,3.0,55,0.00,,---,0.00,VWS V14.00,2013-09-05 21:19:00,
2013-09-05 16:24:00,77.0,60.1,30.17,NNE,22,3.0,5.0,56,0.00,,---,0.00,VWS V14.00,2013-09-05 21:24:00,
2013-09-05 16:29:00,77.0,60.1,30.17,NNE,22,4.0,5.0,56,0.00,,---,0.00,VWS V14.00,2013-09-05 21:29:00,
2013-09-05 16:34:00,77.0,60.6,30.17,ESE,112,1.0,3.0,57,0.00,,---,0.00,VWS V14.00,2013-09-05 21:34:00,
2013-09-05 16:39:00,78.0,61.5,30.17,NE,45,3.0,3.0,57,0.00,,---,0.00,VWS V14.00,2013-09-05 21:39:00,
2013-09-05 16:44:00,78.0,61.0,30.16,North,0,0.0,2.0,56,0.00,,---,0.00,VWS V14.00,2013-09-05 21:44:00,
2013-09-05 16:49:00,77.0,60.6,30.17,NNE,22,5.0,5.0,57,0.00,,---,0.00,VWS V14.00,2013-09-05 21:49:00,
2013-09-05 16:54:00,77.0,61.1,30.17,ENE,68,3.0,4.0,58,0.00,,---,0.00,VWS V14.00,2013-09-05 21:54:00,
2013-09-05 16:59:00,77.0,60.6,30.17,East,90,5.0,6.0,57,0.00,,---,0.00,VWS V14.00,2013-09-05 21:59:00,
2013-09-05 17:04:00,77.0,62.1,30.17,NE,45,0.0,3.0,60,0.00,,---,0.00,VWS V14.00,2013-09-05 22:04:00,
2013-09-05 17:09:00,77.0,61.6,30.16,NNE,22,3.0,5.0,59,0.00,,---,0.00,VWS V14.00,2013-09-05 22:09:00,
2013-09-05 17:14:00,78.0,63.0,30.16,NE,45,3.0,4.0,60,0.00,,---,0.00,VWS V14.00,2013-09-05 22:14:00,
2013-09-05 17:19:00,77.0,62.1,30.16,East,90,3.0,6.0,60,0.00,,---,0.00,VWS V14.00,2013-09-05 22:19:00,
2013-09-05 17:24:00,77.0,62.5,30.16,East,90,3.0,4.0,61,0.00,,---,0.00,VWS V14.00,2013-09-05 22:24:00,
2013-09-05 17:29:00,77.0,62.5,30.16,East,90,3.0,4.0,61,0.00,,---,0.00,VWS V14.00,2013-09-05 22:29:00,
2013-09-05 17:34:00,77.0,63.9,30.16,East,90,3.0,3.0,64,0.00,,---,0.00,VWS V14.00,2013-09-05 22:34:00,
2013-09-05 17:39:00,76.0,63.0,30.16,NE,45,3.0,4.0,64,0.00,,---,0.00,VWS V14.00,2013-09-05 22:39:00,
2013-09-05 17:44:00,76.0,62.5,30.16,ENE,68,3.0,3.0,63,0.00,,---,0.00,VWS V14.00,2013-09-05 22:44:00,
2013-09-05 17:49:00,76.0,62.5,30.16,ENE,68,3.0,3.0,63,0.00,,---,0.00,VWS V14.00,2013-09-05 22:49:00,
2013-09-05 17:54:00,76.0,62.5,30.16,NE,45,3.0,4.0,63,0.00,,---,0.00,VWS V14.00,2013-09-05 22:54:00,
2013-09-05 17:59:00,76.0,63.0,30.16,NE,45,3.0,3.0,64,0.00,,---,0.00,VWS V14.00,2013-09-05 22:59:00,
2013-09-05 18:04:00,76.0,63.0,30.15,ENE,68,4.0,4.0,64,0.00,,---,0.00,VWS V14.00,2013-09-05 23:04:00,
2013-09-05 18:09:00,76.0,63.0,30.15,ENE,68,2.0,3.0,64,0.00,,---,0.00,VWS V14.00,2013-09-05 23:09:00,
2013-09-05 18:14:00,76.0,63.4,30.15,ENE,68,2.0,3.0,65,0.00,,---,0.00,VWS V14.00,2013-09-05 23:14:00,
2013-09-05 18:19:00,76.0,63.0,30.15,ENE,68,3.0,3.0,64,0.00,,---,0.00,VWS V14.00,2013-09-05 23:19:00,
2013-09-05 18:24:00,75.0,62.9,30.15,NE,45,3.0,3.0,66,0.00,,---,0.00,VWS V14.00,2013-09-05 23:24:00,
2013-09-05 18:29:00,75.0,62.9,30.15,NE,45,3.0,3.0,66,0.00,,---,0.00,VWS V14.00,2013-09-05 23:29:00,
2013-09-05 18:34:00,75.0,63.3,30.15,ENE,68,3.0,3.0,67,0.00,,---,0.00,VWS V14.00,2013-09-05 23:34:00,
2013-09-05 18:39:00,75.0,63.3,30.15,ENE,68,3.0,3.0,67,0.00,,---,0.00,VWS V14.00,2013-09-05 23:39:00,
2013-09-05 18:44:00,74.0,62.8,30.15,ENE,68,3.0,3.0,68,0.00,,---,0.00,VWS V14.00,2013-09-05 23:44:00,
2013-09-05 18:49:00,74.0,62.8,30.14,NE,45,4.0,4.0,68,0.00,,---,0.00,VWS V14.00,2013-09-05 23:49:00,
2013-09-05 18:54:00,74.0,63.2,30.15,ENE,68,3.0,4.0,69,0.00,,---,0.00,VWS V14.00,2013-09-05 23:54:00,
2013-09-05 18:59:00,74.0,62.8,30.15,ENE,68,3.0,3.0,68,0.00,,---,0.00,VWS V14.00,2013-09-05 23:59:00,
2013-09-05 19:04:00,73.0,62.2,30.15,ENE,68,3.0,3.0,69,0.00,,---,0.00,VWS V14.00,2013-09-06 00:04:00,
2013-09-05 19:09:00,73.0,62.7,30.15,ENE,68,3.0,3.0,70,0.00,,---,0.00,VWS V14.00,2013-09-06 00:09:00,
2013-09-05 19:14:00,73.0,63.0,30.15,ENE,68,3.0,3.0,71,0.00,,---,0.00,VWS V14.00,2013-09-06 00:14:00,
2013-09-05 19:19:00,72.0,62.5,30.15,East,90,2.0,3.0,72,0.00,,---,0.00,VWS V14.00,2013-09-06 00:19:00,
2013-09-05 19:24:00,72.0,63.3,30.14,ESE,112,3.0,3.0,74,0.00,,---,0.00,VWS V14.00,2013-09-06 00:24:00,
2013-09-05 19:29:00,71.0,63.1,30.14,East,90,3.0,3.0,76,0.00,,---,0.00,VWS V14.00,2013-09-06 00:29:00,
2013-09-05 19:34:00,70.0,63.2,30.14,East,90,3.0,3.0,79,0.00,,---,0.00,VWS V14.00,2013-09-06 00:34:00,
2013-09-05 19:39:00,70.0,64.3,30.14,East,90,3.0,3.0,82,0.00,,---,0.00,VWS V14.00,2013-09-06 00:39:00,
2013-09-05 19:44:00,69.0,63.6,30.15,East,90,3.0,3.0,83,0.00,,---,0.00,VWS V14.00,2013-09-06 00:44:00,
2013-09-05 19:49:00,69.0,63.6,30.15,East,90,3.0,3.0,83,0.00,,---,0.00,VWS V14.00,2013-09-06 00:49:00,
2013-09-05 19:54:00,69.0,63.6,30.15,East,90,3.0,3.0,83,0.00,,---,0.00,VWS V14.00,2013-09-06 00:54:00,
2013-09-05 19:59:00,69.0,63.6,30.15,East,90,3.0,3.0,83,0.00,,---,0.00,VWS V14.00,2013-09-06 00:59:00,
2013-09-05 20:04:00,69.0,63.6,30.15,East,90,3.0,3.0,83,0.00,,---,0.00,VWS V14.00,2013-09-06 01:04:00,
2013-09-05 20:09:00,69.0,62.9,30.15,East,90,1.0,1.0,81,0.00,,---,0.00,VWS V14.00,2013-09-06 01:09:00,
2013-09-05 20:14:00,69.0,63.3,30.15,East,90,0.0,0.0,82,0.00,,---,0.00,VWS V14.00,2013-09-06 01:14:00,
2013-09-05 20:19:00,68.0,62.7,30.15,East,90,0.0,0.0,83,0.00,,---,0.00,VWS V14.00,2013-09-06 01:19:00,
2013-09-05 20:24:00,67.0,62.3,30.15,East,90,0.0,0.0,85,0.00,,---,0.00,VWS V14.00,2013-09-06 01:24:00,
2013-09-05 20:29:00,67.0,62.7,30.16,East,90,0.0,0.0,86,0.00,,---,0.00,VWS V14.00,2013-09-06 01:29:00,
2013-09-05 20:34:00,67.0,63.0,30.16,East,90,0.0,0.0,87,0.00,,---,0.00,VWS V14.00,2013-09-06 01:34:00,
2013-09-05 20:39:00,67.0,63.3,30.16,East,90,0.0,0.0,88,0.00,,---,0.00,VWS V14.00,2013-09-06 01:39:00,
2013-09-05 20:44:00,66.0,63.0,30.16,East,90,0.0,0.0,90,0.00,,---,0.00,VWS V14.00,2013-09-06 01:44:00,
2013-09-05 20:49:00,66.0,63.0,30.16,East,90,0.0,0.0,90,0.00,,---,0.00,VWS V14.00,2013-09-06 01:49:00,
2013-09-05 20:54:00,66.0,63.0,30.16,East,90,0.0,0.0,90,0.00,,---,0.00,VWS V14.00,2013-09-06 01:54:00,
2013-09-05 20:59:00,66.0,63.0,30.16,East,90,0.0,0.0,90,0.00,,---,0.00,VWS V14.00,2013-09-06 01:59:00,
2013-09-05 21:04:00,67.0,64.0,30.16,East,90,0.0,0.0,90,0.00,,---,0.00,VWS V14.00,2013-09-06 02:04:00,
2013-09-05 21:09:00,66.0,63.0,30.16,East,90,0.0,0.0,90,0.00,,---,0.00,VWS V14.00,2013-09-06 02:09:00,
2013-09-05 21:14:00,66.0,63.0,30.17,East,90,0.0,0.0,90,0.00,,---,0.00,VWS V14.00,2013-09-06 02:14:00,
2013-09-05 21:19:00,65.0,62.3,30.17,East,90,0.0,0.0,91,0.00,,---,0.00,VWS V14.00,2013-09-06 02:19:00,
2013-09-05 21:24:00,65.0,62.6,30.17,East,90,0.0,0.0,92,0.00,,---,0.00,VWS V14.00,2013-09-06 02:24:00,
2013-09-05 21:29:00,65.0,62.9,30.17,East,90,0.0,0.0,93,0.00,,---,0.00,VWS V14.00,2013-09-06 02:29:00,
2013-09-05 21:34:00,65.0,62.9,30.17,East,90,0.0,0.0,93,0.00,,---,0.00,VWS V14.00,2013-09-06 02:34:00,
2013-09-05 21:39:00,65.0,63.2,30.17,East,90,1.0,3.0,94,0.00,,---,0.00,VWS V14.00,2013-09-06 02:39:00,
2013-09-05 21:44:00,65.0,63.2,30.18,East,90,1.0,1.0,94,0.00,,---,0.00,VWS V14.00,2013-09-06 02:44:00,
2013-09-05 21:49:00,64.0,62.2,30.17,East,90,0.0,0.0,94,0.00,,---,0.00,VWS V14.00,2013-09-06 02:49:00,
2013-09-05 21:54:00,64.0,62.5,30.17,East,90,0.0,0.0,95,0.00,,---,0.00,VWS V14.00,2013-09-06 02:54:00,
2013-09-05 21:59:00,64.0,62.8,30.18,East,90,0.0,0.0,96,0.00,,---,0.00,VWS V14.00,2013-09-06 02:59:00,
2013-09-05 22:04:00,64.0,62.8,30.18,East,90,0.0,0.0,96,0.00,,---,0.00,VWS V14.00,2013-09-06 03:04:00,
2013-09-05 22:09:00,64.0,62.8,30.18,East,90,0.0,0.0,96,0.00,,---,0.00,VWS V14.00,2013-09-06 03:09:00,
2013-09-05 22:14:00,63.0,62.1,30.18,East,90,0.0,0.0,97,0.00,,---,0.00,VWS V14.00,2013-09-06 03:14:00,
2013-09-05 22:19:00,63.0,62.1,30.18,East,90,0.0,0.0,97,0.00,,---,0.00,VWS V14.00,2013-09-06 03:19:00,
2013-09-05 22:24:00,63.0,62.1,30.18,East,90,0.0,0.0,97,0.00,,---,0.00,VWS V14.00,2013-09-06 03:24:00,
2013-09-05 22:29:00,63.0,62.4,30.18,East,90,1.0,2.0,98,0.00,,---,0.00,VWS V14.00,2013-09-06 03:29:00,
2013-09-05 22:34:00,63.0,62.4,30.17,East,90,1.0,1.0,98,0.00,,---,0.00,VWS V14.00,2013-09-06 03:34:00,
2013-09-05 22:39:00,63.0,62.4,30.17,East,90,0.0,0.0,98,0.00,,---,0.00,VWS V14.00,2013-09-06 03:39:00,
2013-09-05 22:44:00,62.0,61.4,30.18,East,90,0.0,0.0,98,0.00,,---,0.00,VWS V14.00,2013-09-06 03:44:00,
2013-09-05 22:49:00,63.0,62.4,30.18,East,90,3.0,3.0,98,0.00,,---,0.00,VWS V14.00,2013-09-06 03:49:00,
2013-09-05 22:54:00,63.0,62.4,30.18,East,90,3.0,3.0,98,0.00,,---,0.00,VWS V14.00,2013-09-06 03:54:00,
2013-09-05 22:59:00,63.0,62.4,30.18,East,90,3.0,5.0,98,0.00,,---,0.00,VWS V14.00,2013-09-06 03:59:00,
2013-09-05 23:01:00,63.0,62.4,30.18,ENE,68,3.0,4.0,98,0.00,,---,0.00,VWS V14.00,2013-09-06 04:01:00,
2013-09-05 23:02:00,63.0,62.4,30.18,ENE,68,4.0,4.0,98,0.00,,---,0.00,VWS V14.00,2013-09-06 04:02:00,
2013-09-05 23:07:00,63.0,62.4,30.18,North,0,0.0,0.0,98,0.00,,---,0.00,VWS V14.00,2013-09-06 04:07:00,
2013-09-05 23:12:00,63.0,62.4,30.18,SW,225,0.0,0.0,98,0.00,,---,0.00,VWS V14.00,2013-09-06 04:12:00,
2013-09-05 23:17:00,62.0,61.1,30.18,NNW,338,0.0,0.0,97,0.00,,---,0.00,VWS V14.00,2013-09-06 04:17:00,
2013-09-05 23:22:00,62.0,61.1,30.18,ENE,68,0.0,0.0,97,0.00,,---,0.00,VWS V14.00,2013-09-06 04:22:00,
2013-09-05 23:27:00,62.0,61.4,30.18,East,90,0.0,0.0,98,0.00,,---,0.00,VWS V14.00,2013-09-06 04:27:00,
2013-09-05 23:32:00,62.0,61.4,30.18,East,90,0.0,0.0,98,0.00,,---,0.00,VWS V14.00,2013-09-06 04:32:00,
2013-09-05 23:37:00,62.0,61.4,30.18,East,90,0.0,0.0,98,0.00,,---,0.00,VWS V14.00,2013-09-06 04:37:00,
2013-09-05 23:42:00,62.0,61.7,30.19,East,90,0.0,0.0,99,0.00,,---,0.00,VWS V14.00,2013-09-06 04:42:00,
2013-09-05 23:47:00,62.0,61.7,30.19,ENE,68,3.0,3.0,99,0.00,,---,0.00,VWS V14.00,2013-09-06 04:47:00,
2013-09-05 23:52:00,62.0,61.7,30.18,NE,45,0.0,2.0,99,0.00,,---,0.00,VWS V14.00,2013-09-06 04:52:00,
2013-09-05 23:57:00,61.0,60.7,30.18,North,0,2.0,3.0,99,0.00,,---,0.00,VWS V14.00,2013-09-06 04:57:00,